This demonstration page uses our WeatherBlox Daily Observations layout. Learn more.

Left ArrowRight Arrow

Hourly Observations for July 6, 2018

Temp ( °F °C ) Dew Point ( °F °C ) Humidity (%) Winds ( mph kmh ) Pressure ( in mb ) Visibility ( mi km ) Precip ( " mm )
12:51 am 00:51 Clear 85 29.4 51 10.6 31 31 ESE 8 13 29.99 1016 10 16.0934 N/A
1:51 am 01:51 Clear 85 29.4 53 11.7 33 33 E 9 15 30.01 1016 10 16.0934 N/A
2:51 am 02:51 Clear 84 28.9 55 12.8 37 37 SE 10 17 30.02 1017 10 16.0934 N/A
3:51 am 03:51 Clear 83 28.3 56 13.3 40 40 SE 10 17 30.04 1017 10 16.0934 N/A
4:51 am 04:51 Clear 81 27.2 57 13.9 44 44 SE 14 22 30.06 1018 10 16.0934 N/A
5:51 am 05:51 Sunny 81 27.2 58 14.4 45 45 SE 21 33 30.08 1019 10 16.0934 N/A
6:51 am 06:51 Sunny 82 27.8 58 14.4 44 44 ESE 18 30 30.09 1019 10 16.0934 N/A
7:51 am 07:51 Sunny 84 28.9 58 14.4 41 41 SE 16 26 30.1 1019 10 16.0934 N/A
8:51 am 08:51 Partly Cloudy 87 30.6 57 13.9 36 36 ESE 18 30 30.09 1019 10 16.0934 N/A
9:51 am 09:51 Mostly Cloudy 90 32.2 55 12.8 31 31 SE 28 44 30.08 1019 10 16.0934 N/A
10:51 am 10:51 Partly Cloudy 92 33.3 54 12.2 28 28 SE 22 35 30.06 1018 10 16.0934 N/A
11:51 am 11:51 Mostly Sunny 94 34.4 54 12.2 26 26 ESE 17 28 30.04 1017 10 16.0934 N/A
12:51 pm 12:51 Mostly Sunny 96 35.6 51 10.6 22 22 ESE 21 33 30.01 1016 10 16.0934 N/A
1:51 pm 13:51 Mostly Sunny 98 36.7 49 9.4 19 19 SE 24 39 29.97 1015 10 16.0934 N/A
2:51 pm 14:51 Sunny 98 36.7 47 8.3 17 17 SE 18 30 29.94 1014 10 16.0934 N/A
3:51 pm 15:51 Sunny 100 37.8 46 7.8 16 16 SSE 22 35 29.91 1013 10 16.0934 N/A
4:51 pm 16:51 Sunny 99 37.2 46 7.8 16 16 SSE 15 24 29.88 1012 10 16.0934 N/A
5:51 pm 17:51 Sunny 98 36.7 46 7.8 17 17 SE 17 28 29.87 1011 10 16.0934 N/A
6:51 pm 18:51 Mostly Sunny 96 35.6 48 8.9 19 19 SSE 17 28 29.88 1012 10 16.0934 N/A
7:51 pm 19:51 Clear 94 34.4 48 8.9 21 21 SE 14 22 29.89 1012 10 16.0934 N/A
8:51 pm 20:51 Clear 92 33.3 47 8.3 21 21 SE 12 19 29.9 1013 10 16.0934 N/A
9:51 pm 21:51 Mostly Clear 90 32.2 47 8.3 23 23 ESE 7 11 29.92 1013 10 16.0934 N/A
10:51 pm 22:51 Clear 87 30.6 47 8.3 25 25 E 7 11 29.93 1013 10 16.0934 N/A
11:51 pm 23:51 Clear 84 28.9 47 8.3 27 27 E 7 11 29.93 1014 10 16.0934 N/A

Powered by AerisWeather